Location: Hermaringen
(48.5952°N, 10.2585°E)
Time: 14:15:14
(UTC+00:00)

Transit 2A Rocket - Visible Passes

Search period start: 10 February 2026 00:00
Search period end: 20 February 2026 00:00
Orbit: 581 x 902 km, 66.7° (Epoch: 9 February)

Date Brightness Start Highest point End Pass type
(mag) Time Alt. Az. Time Alt. Az. Time Alt. Az.
10 Feb 5.8 18:03:30 10° SW 18:09:27 60° NW 18:15:24 10° NNE visible
10 Feb 7.4 19:48:40 10° WNW 19:53:06 21° NNW 19:55:34 16° N visible
10 Feb 8.2 21:35:16 10° NNW 21:35:16 10° NNW 21:35:16 10° NNW visible
11 Feb 5.4 17:17:42 10° SSW 17:23:44 90° NW 17:29:46 10° NE visible
11 Feb 7.1 19:01:53 10° W 19:06:56 27° NW 19:11:26 12° NNE visible
11 Feb 7.8 20:48:32 10° NW 20:51:09 14° NNW 20:51:09 14° NNW visible
12 Feb 6.6 18:15:21 10° WSW 18:20:55 37° NW 18:26:25 10° NNE visible
12 Feb 7.6 20:01:33 10° NW 20:05:04 16° NNW 20:06:57 14° N visible
13 Feb 6.1 17:29:07 10° SW 17:35:01 53° NW 17:40:52 10° NNE visible
13 Feb 7.5 19:14:34 10° WNW 19:18:46 19° NNW 19:22:44 11° NNE visible
13 Feb 7.9 21:01:03 10° NNW 21:02:26 12° NNW 21:02:26 12° NNW visible
14 Feb 7.2 18:27:42 10° W 18:32:35 25° NNW 18:37:22 10° NNE visible
14 Feb 7.6 20:14:25 10° NW 20:17:10 13° N 20:18:09 13° N visible
15 Feb 6.8 17:41:05 10° WSW 17:46:30 33° NW 17:51:51 10° NNE visible
15 Feb 7.6 19:27:28 10° NW 19:30:46 15° NNW 19:33:50 10° NNE visible
15 Feb 8.0 21:12:50 10° NNW 21:13:32 11° NNW 21:13:32 11° NNW visible
16 Feb 7.5 18:40:27 10° WNW 18:44:27 18° NNW 18:48:21 10° NNE visible
16 Feb 7.7 20:26:47 10° NNW 20:29:12 13° N 20:29:12 13° N visible
17 Feb 7.3 17:53:32 10° W 17:58:13 23° NNW 18:02:48 10° NNE visible
17 Feb 7.6 19:40:17 10° NNW 19:42:52 13° N 19:44:51 11° NNE visible
17 Feb 8.0 21:24:05 10° NNW 21:24:32 11° NNW 21:24:32 11° NNW visible
18 Feb 6.9 17:06:50 10° W 17:12:07 30° NW 17:17:17 10° NNE visible
18 Feb 7.5 18:53:23 10° NW 18:56:28 14° NNW 18:59:28 10° NNE visible
18 Feb 7.7 20:38:24 10° NNW 20:40:10 13° N 20:40:10 13° N visible
19 Feb 7.5 18:06:21 10° WNW 18:10:06 17° NNW 18:13:46 10° NNE visible
19 Feb 7.5 19:52:28 10° NNW 19:54:59 13° N 19:55:47 12° NNE visible
19 Feb 8.0 21:35:08 10° NNW 21:35:28 11° NNW 21:35:28 11° NNW visible
